Starlink 4388

operational
NORAD ID: 53651 Int'l Des: 2022-105 Owner: SPXS Country: US Constellation: starlink
LEOCIRCULARRETROGRADESSO

About Starlink 4388

Description loading...

Live Position

Loading 3D Globe...

Upcoming Passes

Altitude History

Altitude vs Time

uPlot chart will show altitude changes over time

Two-Line Element Set

1 53651U 22105D 26035.63134524 .00001589 00000-0 11431-3 0 9990
2 53651 97.6032 278.6372 0001834 86.2530 273.8906 15.05654750188329
Epoch: Feb 4, 2026 • Age: 15 hours

Current Status

Altitude 557.0 km
Velocity 7.59 km/s
Sub-Earth Point 52.64°N, 47.69°E
Launch Date Aug 31, 2022
Age 3.4 years
Type internet

Technical Details

Classification Payload
Mass 300.00 kg
Dry Mass 290.00 kg
Total Mass 300.00 kg
Length 0.20 m
Diameter 2.80 m
Span 9.00 m
Shape Box + pan
Manufacturer SPXS
Bus Type Starlink
Phase Status In Orbit
Owner/State SPXS/US

Large Constellations

Loading constellations...